Date,TemperatureHighF,TemperatureAvgF,TemperatureLowF,DewpointHighF,DewpointAvgF,DewpointLowF,HumidityHigh,HumidityAvg,HumidityLow,PressureMaxIn,PressureMinIn,WindSpeedMaxMPH,WindSpeedAvgMPH,GustSpeedMaxMPH,PrecipitationSumIn
2013-1-1,43.5,39.5,31.6,36.8,32.8,22.3,89,77,68,29.97,29.81,8,3,0,0.00
2013-1-2,36.9,29.8,24.8,22.3,19.9,18.2,82,67,52,30.16,29.95,6,2,0,0.00
2013-1-3,38.1,29.2,19.8,26.8,21.2,17.5,98,73,45,30.17,30.06,9,1,0,0.00
2013-1-4,36.9,32.9,27.5,27.3,26.1,23.8,94,76,67,30.09,29.97,12,3,0,0.00
2013-1-5,44.8,34.6,28.2,30.5,26.6,23.7,98,74,53,30.31,30.02,10,2,0,0.00
2013-1-6,51.8,39.5,31.3,51.3,36.2,29.1,98,89,58,30.19,29.95,10,1,0,0.12
2013-1-7,49.6,39.8,28.8,41.2,34.3,28.3,98,83,54,30.37,30.03,5,2,0,0.00
2013-1-8,50.5,37.7,25.3,44.0,34.8,24.9,98,90,68,30.39,30.31,10,1,0,0.00
2013-1-9,54.7,43.8,30.7,51.4,42.3,30.2,98,95,72,30.35,30.12,6,2,0,0.00
2013-1-10,52.9,42.1,35.1,45.7,35.9,32.1,98,81,50,30.49,30.26,6,1,0,0.00
2013-1-11,57.6,43.6,31.6,57.0,42.6,31.1,98,97,69,30.48,30.02,5,1,0,1.00
2013-1-12,54.1,50.5,45.7,53.6,49.9,45.1,98,98,98,30.12,30.02,4,1,0,0.00
2013-1-13,53.8,48.5,44.2,53.2,47.6,39.9,98,97,83,30.10,29.95,4,0,0,0.00
2013-1-14,59.0,54.0,41.4,58.4,53.4,40.8,98,98,98,30.23,29.88,8,1,0,0.21
2013-1-15,41.0,39.0,35.4,40.5,38.5,34.9,98,98,98,30.30,30.16,11,2,0,0.56
2013-1-16,38.8,36.5,33.8,38.3,36.0,33.3,98,98,98,30.15,29.75,6,2,0,1.34
2013-1-17,45.5,40.0,36.1,41.4,38.0,35.6,98,93,74,30.06,29.90,8,1,0,0.00
2013-1-18,38.7,31.5,23.5,38.1,22.6,13.3,98,72,42,30.46,29.94,13,3,0,0.00
2013-1-19,54.1,39.5,24.3,37.1,31.7,20.3,98,76,47,30.39,29.89,16,3,0,0.00
2013-1-20,58.8,45.0,31.8,38.4,30.1,14.4,94,59,32,30.02,29.69,14,5,0,0.00
2013-1-21,37.0,30.7,25.9,29.2,18.5,13.6,98,62,44,30.07,29.80,12,2,0,0.00
2013-1-22,26.1,19.9,13.6,16.8,4.7,-1.9,73,52,36,30.22,29.83,10,5,0,0.00
2013-1-23,24.8,15.7,8.2,10.3,3.6,-1.5,98,60,41,30.26,30.15,8,3,0,0.00
2013-1-24,28.2,19.3,11.3,15.5,7.2,0.8,98,63,33,30.41,30.09,8,2,0,0.00
2013-1-25,27.7,18.6,10.8,20.9,8.8,1.2,98,68,43,30.43,30.03,5,1,0,0.00
2013-1-26,30.6,20.6,5.7,23.2,14.3,5.3,98,78,51,30.36,30.02,9,1,0,0.06
2013-1-27,38.3,23.7,8.2,22.5,16.9,7.8,98,78,49,30.53,30.36,6,1,0,0.00
2013-1-28,36.9,31.7,20.1,36.3,31.2,19.6,98,98,98,30.47,29.98,6,1,0,0.27
2013-1-29,54.1,44.1,33.1,53.6,43.6,32.6,98,98,98,30.10,29.97,4,0,0,0.00
2013-1-30,68.4,57.6,42.1,67.8,57.0,41.6,98,98,98,29.98,29.31,13,4,0,0.04
2013-1-31,61.9,46.4,29.3,61.4,35.8,14.3,99,68,41,29.81,29.03,23,8,0,1.09
2013-2-1,34.5,28.3,22.1,30.2,15.8,8.9,98,60,41,30.24,29.79,15,5,0,0.00
2013-2-2,33.6,25.3,16.3,25.9,13.7,8.5,98,63,39,30.29,30.00,10,3,0,0.00
2013-2-3,35.6,27.7,21.9,33.4,26.5,21.4,98,95,74,29.99,29.76,6,1,0,0.04
2013-2-4,34.2,27.3,20.8,27.4,19.1,15.7,98,72,49,30.00,29.81,11,3,0,0.00
2013-2-5,34.2,31.4,27.1,33.7,30.9,26.7,98,98,98,29.91,29.83,5,1,0,0.01
2013-2-6,43.9,33.5,23.5,39.2,29.9,23.1,98,88,61,30.32,29.87,9,2,0,0.04
2013-2-7,37.9,29.2,20.3,32.8,24.2,19.4,98,83,58,30.45,30.22,6,2,0,0.00
2013-2-8,39.7,35.5,32.0,39.2,35.0,31.5,98,98,98,30.22,29.60,14,4,0,1.25
2013-2-9,36.5,29.7,22.6,32.9,24.1,13.5,98,81,56,30.33,29.72,12,3,0,0.30
2013-2-10,44.4,29.6,14.2,31.3,20.8,13.7,98,73,34,30.46,30.27,4,1,0,0.05
2013-2-11,53.2,43.2,31.6,52.7,42.6,31.1,98,98,98,30.27,29.60,5,1,0,0.61
2013-2-12,52.9,42.4,29.5,44.6,36.7,29.0,98,83,55,29.93,29.71,16,3,0,0.00
2013-2-13,45.9,34.6,26.8,41.6,33.2,26.3,98,95,71,29.92,29.62,7,1,0,0.05
2013-2-14,50.9,38.5,30.6,49.5,37.0,30.1,98,95,71,29.97,29.66,6,1,0,0.70
2013-2-15,61.9,44.0,28.6,54.5,39.7,28.1,98,87,54,29.98,29.86,8,2,0,0.00
2013-2-16,43.3,36.8,31.5,42.3,33.8,20.5,98,89,63,29.93,29.70,12,3,0,0.05
2013-2-17,37.0,29.0,21.6,20.4,12.9,4.5,68,51,40,30.02,29.67,13,6,0,0.04
2013-2-18,41.2,29.0,18.9,19.7,12.9,5.8,71,52,32,30.26,30.04,9,3,0,0.00
2013-2-19,50.7,38.5,25.0,45.5,36.6,20.9,98,93,67,30.16,29.65,13,3,0,0.43
2013-2-20,37.6,31.7,25.2,36.5,21.6,14.2,98,68,44,30.00,29.73,13,5,0,0.02
2013-2-21,40.1,30.7,23.9,23.5,20.1,15.4,85,65,48,30.25,29.99,11,5,0,0.00
2013-2-22,40.3,31.8,23.0,38.3,30.3,21.9,98,94,80,30.36,30.19,6,2,0,0.01
2013-2-23,48.0,41.4,34.3,47.5,40.9,33.8,98,98,98,30.20,29.73,10,2,0,0.27
2013-2-24,54.3,41.0,32.5,52.3,38.6,29.9,98,91,75,29.97,29.71,14,4,0,0.01
2013-2-25,49.3,37.3,27.7,39.8,33.6,27.2,98,87,64,30.18,29.97,8,2,0,0.00
2013-2-26,46.8,37.5,24.8,46.2,37.0,24.3,98,98,98,30.20,29.72,13,4,0,0.49
2013-2-27,47.3,44.2,40.8,46.8,43.6,40.3,98,98,98,29.72,29.46,10,4,0,0.40
2013-2-28,50.4,44.0,37.0,49.8,41.5,35.6,98,91,64,60.58,29.52,6,2,0,0.01
2013-3-1,48.6,40.5,33.6,45.0,36.9,33.1,98,88,63,29.76,29.58,9,3,0,0.00
2013-3-2,45.3,37.4,32.5,36.5,31.5,28.5,98,80,54,29.76,29.66,9,3,0,0.00
2013-3-3,42.3,33.8,27.5,29.3,26.0,23.3,98,74,52,29.75,29.66,8,4,0,0.00
2013-3-4,44.8,35.4,29.5,30.4,25.5,22.1,91,68,47,29.90,29.75,11,4,0,0.00
2013-3-5,52.3,39.0,29.8,38.8,32.4,29.3,98,80,49,29.98,29.89,7,2,0,0.00
2013-3-6,42.1,38.8,31.3,41.6,38.3,30.8,98,98,98,29.88,29.66,24,8,0,0.26
2013-3-7,49.3,40.5,35.1,44.4,37.9,34.6,98,91,65,30.04,29.85,18,6,0,0.00
2013-3-8,41.5,35.6,30.6,41.0,35.1,30.1,98,98,98,30.16,29.98,12,4,0,0.71
2013-3-9,62.4,43.9,30.2,38.7,31.0,20.3,98,69,21,30.26,30.14,11,2,0,0.00
2013-3-10,59.7,40.5,26.1,50.1,37.2,25.6,98,90,53,30.33,30.22,7,2,0,0.00
2013-3-11,62.8,46.5,31.3,60.1,45.4,30.8,98,96,75,30.26,30.01,7,2,0,0.00
2013-3-12,59.9,53.2,43.7,59.3,52.7,43.2,98,98,98,30.01,29.61,9,4,0,1.22
2013-3-13,58.5,46.3,36.1,46.0,37.2,30.3,98,74,38,29.90,29.77,11,4,0,0.00
2013-3-14,45.7,38.3,31.3,29.9,22.2,16.9,86,54,36,29.96,29.86,12,6,0,0.00
2013-3-15,52.5,40.9,27.7,35.8,25.6,16.3,82,55,42,29.98,29.68,13,3,0,0.01
2013-3-16,44.6,37.6,33.3,43.2,35.4,30.5,98,92,66,29.87,29.69,7,2,0,0.21
2013-3-17,43.5,35.4,28.0,38.0,30.6,27.5,98,84,63,30.25,29.87,8,2,0,0.21
2013-3-18,42.6,35.0,28.9,42.1,32.2,22.0,98,90,70,30.33,29.86,11,4,0,0.79
2013-3-19,54.5,43.8,38.3,52.9,40.4,29.0,98,89,57,29.85,29.65,10,3,0,0.51
2013-3-20,54.0,42.2,31.3,31.4,26.7,21.7,85,57,33,29.88,29.73,18,4,0,0.02
2013-3-21,42.8,36.1,29.5,34.9,24.9,16.9,98,65,44,29.76,29.60,9,4,0,0.00
2013-3-22,45.0,35.6,27.7,30.6,26.0,17.9,97,69,49,29.88,29.73,10,4,0,0.00
2013-3-23,54.1,40.4,29.1,29.3,27.3,25.1,98,63,35,29.90,29.80,11,4,0,0.00
2013-3-24,51.4,39.7,25.2,37.8,29.1,24.7,98,69,39,29.93,29.64,7,2,0,0.00
2013-3-25,38.1,36.0,33.1,37.6,35.5,32.6,98,98,98,29.64,29.40,10,3,0,1.05
2013-3-26,56.7,44.1,34.7,51.2,39.2,34.2,98,85,52,29.84,29.57,8,2,0,0.01
2013-3-27,57.7,45.3,32.7,46.2,37.6,32.2,98,78,41,29.97,29.85,14,3,0,0.00
2013-3-28,53.2,44.4,35.1,43.5,37.5,34.6,98,78,54,30.09,29.95,7,3,0,0.00
2013-3-29,62.4,48.1,34.9,40.3,36.9,33.2,98,68,36,30.13,30.03,8,2,0,0.00
2013-3-30,64.2,47.8,28.6,45.9,33.4,27.4,98,65,27,30.15,30.04,8,1,0,0.00
2013-3-31,58.8,46.0,32.0,50.5,42.4,31.5,98,89,50,30.10,29.65,9,2,0,0.41
2013-4-1,71.4,52.4,39.6,62.3,44.7,22.9,98,78,45,29.88,29.58,14,4,0,0.01
2013-4-2,52.0,40.7,28.9,25.5,21.2,16.7,85,48,28,30.07,29.89,10,3,0,0.00
2013-4-3,53.4,41.4,28.9,25.0,19.9,13.7,72,44,25,30.26,30.07,15,4,0,0.00
2013-4-4,59.2,42.5,24.8,35.4,25.4,17.6,98,54,28,30.37,30.05,7,2,0,0.00
2013-4-5,68.9,51.4,38.3,55.4,35.3,25.1,98,64,21,30.05,29.68,8,2,0,0.15
2013-4-6,60.1,46.3,35.4,38.9,26.3,19.3,98,50,21,30.27,29.96,11,3,0,0.00
2013-4-7,66.6,49.9,33.8,56.5,43.6,33.3,98,82,43,30.28,29.95,13,3,0,0.00
2013-4-8,84.0,65.5,47.7,63.0,56.2,47.1,98,77,39,30.03,29.91,8,2,0,0.00
2013-4-9,90.5,74.3,59.5,70.9,60.1,50.5,98,68,28,29.95,29.85,8,3,0,0.00
2013-4-10,95.0,74.8,59.9,71.4,64.4,59.3,98,76,36,29.88,29.72,11,4,0,0.48
2013-4-11,63.1,56.9,48.6,62.6,56.4,48.0,98,98,98,29.90,29.73,11,4,0,0.06
2013-4-12,48.6,46.2,44.1,48.0,45.7,43.5,98,98,98,29.89,29.61,13,5,0,1.79
2013-4-13,65.8,53.6,39.6,59.9,46.0,39.0,98,79,47,29.92,29.69,8,2,0,0.00
2013-4-14,66.4,54.7,37.6,57.5,42.8,34.6,98,70,35,30.11,29.91,10,2,0,0.00
2013-4-15,62.1,51.7,45.9,55.3,48.5,43.4,98,89,68,30.31,30.12,7,3,0,0.00
2013-4-16,76.8,61.4,45.7,69.8,59.1,45.1,98,93,73,30.30,30.07,8,3,0,0.00
2013-4-17,78.1,63.1,50.4,62.9,56.8,45.0,98,84,33,30.23,30.04,7,2,0,0.00
2013-4-18,64.4,56.8,47.7,63.8,56.2,47.1,98,98,98,30.25,30.01,10,3,0,0.00
2013-4-19,82.8,68.9,56.3,82.1,68.3,55.7,98,98,98,30.01,29.57,12,4,0,0.58
2013-4-20,64.8,54.1,46.4,54.8,42.4,31.6,98,69,40,30.26,29.66,9,4,0,0.65
2013-4-21,59.5,46.9,34.7,37.5,31.4,27.0,98,57,36,30.57,30.26,14,2,0,0.00
2013-4-22,55.9,44.0,31.5,47.6,40.9,31.0,98,90,69,30.57,30.40,13,4,0,0.00
2013-4-23,50.7,46.4,41.2,50.2,45.8,40.7,98,98,98,30.40,30.08,13,3,0,0.00
2013-4-24,77.4,63.3,38.8,67.9,59.6,38.3,98,89,69,30.07,29.76,11,3,0,0.00
2013-4-25,71.8,57.4,42.8,68.8,41.3,27.1,99,61,20,30.22,29.83,11,3,0,0.00
2013-4-26,71.8,55.8,38.7,49.3,39.5,11.9,98,63,10,30.37,30.22,7,1,0,0.00
2013-4-27,77.0,56.7,35.8,52.3,38.6,30.8,98,60,21,30.39,30.24,9,1,0,0.00
2013-4-28,78.8,58.2,39.2,57.5,42.9,32.6,98,64,28,30.27,30.15,10,2,0,0.00
2013-4-29,57.9,54.9,51.8,57.4,54.3,51.3,98,98,98,30.17,30.08,6,1,0,0.63
2013-4-30,71.8,60.3,51.6,65.1,52.5,41.9,98,79,43,30.23,30.11,11,3,0,0.01
2013-5-1,72.0,60.4,42.4,53.5,48.2,39.0,98,68,34,30.42,30.31,11,3,0,0.00
2013-5-2,77.7,57.6,36.9,58.3,47.2,36.3,98,74,31,30.41,30.28,6,1,0,0.00
2013-5-3,68.5,54.6,42.6,55.4,47.4,42.1,98,80,48,30.38,30.29,11,2,0,0.00
2013-5-4,73.8,56.3,41.5,61.6,48.0,41.0,98,78,39,30.32,30.17,11,2,0,0.00
2013-5-5,67.3,51.7,40.3,54.7,47.6,39.8,98,87,59,30.23,30.15,9,2,0,0.00
2013-5-6,72.0,56.3,42.3,67.5,55.2,41.7,98,96,84,30.18,30.07,6,2,0,0.00
2013-5-7,73.0,60.2,51.4,72.4,59.6,50.9,98,98,98,30.09,29.98,6,2,0,0.07
2013-5-8,78.8,64.7,57.2,74.6,62.8,56.6,98,94,62,29.99,29.86,9,2,0,0.36
2013-5-9,75.9,65.1,55.8,72.6,63.6,55.2,98,95,75,29.93,29.84,7,1,0,0.99
2013-5-10,90.7,72.7,54.7,79.3,63.7,54.1,98,78,37,29.95,29.82,5,1,0,0.02
2013-5-11,82.6,69.2,62.6,81.2,68.3,62.0,98,97,77,29.87,29.63,6,2,0,0.46
2013-5-12,74.3,62.9,51.6,65.4,48.4,31.6,98,65,28,29.92,29.63,11,2,0,0.12
2013-5-13,63.3,51.4,37.2,48.6,36.3,28.6,98,60,36,30.07,29.92,7,1,0,0.00
2013-5-14,67.6,52.4,32.9,46.2,36.7,30.5,98,62,27,30.12,29.99,7,1,0,0.00
2013-5-15,78.4,64.0,47.3,71.2,59.8,43.1,98,87,57,30.03,29.64,9,2,0,0.00
2013-5-16,64.4,61.1,58.3,63.8,60.5,57.7,98,98,98,29.78,29.65,3,0,0,0.00
2013-5-17,82.8,67.8,54.0,63.8,54.5,48.0,98,68,33,30.13,29.79,6,1,0,0.00
2013-5-18,68.7,59.9,53.6,67.1,59.2,53.0,98,97,85,30.23,30.13,6,1,0,0.44
2013-5-19,63.7,60.6,56.8,63.1,60.0,56.3,98,98,98,30.22,30.09,6,1,0,0.09
2013-5-20,84.9,71.0,61.5,84.3,70.4,60.9,98,98,98,30.10,29.92,7,1,0,0.01
2013-5-21,89.2,75.7,64.4,87.3,73.3,-25.4,98,95,2,29.93,29.80,7,2,0,0.00
2013-5-22,91.4,77.1,67.5,90.8,76.1,66.9,98,97,84,29.87,29.77,7,2,0,0.00
2013-5-23,86.4,72.6,68.5,85.7,72.0,68.0,98,98,98,29.84,29.68,13,2,0,0.29
2013-5-24,68.4,57.3,45.1,67.8,56.7,44.6,98,98,98,29.96,29.64,10,2,0,0.31
2013-5-25,65.3,55.3,45.5,52.2,44.9,39.1,98,71,46,30.01,29.91,13,4,0,0.00
2013-5-26,74.8,61.5,47.5,50.5,43.8,38.5,98,56,28,30.16,29.98,8,2,0,0.00
2013-5-27,81.5,62.4,37.8,61.5,46.3,37.2,98,64,24,30.21,30.10,6,1,0,0.00
2013-5-28,65.1,60.4,51.6,64.5,59.8,51.1,98,98,98,30.16,30.05,4,0,0,0.35
2013-5-29,96.1,77.4,58.1,89.2,68.9,-23.8,99,81,2,30.05,29.97,9,1,0,0.00
2013-5-30,100.4,84.2,68.9,88.4,75.7,68.3,98,79,44,30.10,30.01,7,1,0,0.00
2013-5-31,99.7,83.3,67.6,88.4,73.9,65.4,98,78,38,30.08,29.95,6,1,0,0.00
2013-6-1,95.9,82.1,66.0,85.2,75.3,65.4,98,83,53,29.98,29.85,13,2,0,0.00
2013-6-2,97.0,82.9,72.1,87.0,78.9,71.5,98,89,61,29.87,29.74,12,3,0,0.00
2013-6-3,83.5,73.8,68.4,82.9,73.2,67.8,98,98,98,29.80,29.73,5,1,0,0.39
2013-6-4,83.8,69.6,55.8,67.8,57.3,51.6,98,70,35,30.05,29.80,6,2,0,0.00
2013-6-5,85.1,66.9,46.6,63.8,54.9,46.0,98,72,32,30.14,30.04,6,1,0,0.00
2013-6-6,79.3,66.0,53.4,73.3,63.5,52.9,98,93,63,30.08,29.91,8,2,0,0.02
2013-6-7,72.0,65.7,61.7,71.4,65.1,61.1,98,98,98,29.91,29.49,8,2,0,4.66
2013-6-8,82.8,70.3,59.5,82.1,69.7,59.0,98,98,98,30.01,29.49,5,1,0,0.23
2013-6-9,88.9,73.8,59.2,87.3,71.9,58.6,98,94,62,30.13,30.01,7,1,0,0.00
2013-6-10,75.6,69.8,63.5,75.0,69.2,62.9,98,98,98,30.10,29.74,5,1,0,1.87
2013-6-11,88.2,77.0,68.0,87.5,76.4,67.4,98,98,98,29.73,29.61,8,3,0,0.13
2013-6-12,91.0,78.6,65.7,90.0,76.9,65.1,98,95,71,29.78,29.70,7,2,0,0.00
2013-6-13,84.2,70.5,61.3,83.6,69.9,60.8,98,98,98,29.78,29.33,6,2,0,1.38
2013-6-14,81.0,63.3,55.0,80.3,62.7,54.5,98,98,98,29.86,29.43,8,2,0,0.38
2013-6-15,90.3,72.4,54.5,87.7,69.7,53.9,98,92,64,29.97,29.86,7,1,0,0.01
2013-6-16,89.2,70.3,57.7,88.6,69.7,57.2,98,98,98,29.94,29.77,8,1,0,0.27
2013-6-17,93.4,77.5,65.1,92.7,76.9,64.5,98,98,98,29.87,29.78,11,2,0,0.00
2013-6-18,84.7,68.6,62.8,84.1,68.0,62.2,98,98,98,29.85,29.74,6,0,0,1.35
2013-6-19,83.8,70.3,57.6,80.7,68.3,57.0,98,94,59,30.11,29.80,8,2,0,0.01
2013-6-20,86.5,70.1,52.9,85.9,69.4,52.3,98,98,90,30.22,30.10,4,1,0,0.00
2013-6-21,90.3,71.1,53.2,85.8,69.2,52.7,98,94,66,30.26,30.18,5,1,0,0.00
2013-6-22,93.4,74.1,55.4,89.7,73.4,54.8,98,98,83,30.21,30.07,7,1,0,0.00
2013-6-23,92.1,75.4,59.2,91.5,74.8,58.6,98,98,98,30.15,30.00,7,1,0,0.28
2013-6-24,99.7,80.1,66.7,99.0,79.5,66.2,98,98,98,30.04,29.94,9,2,0,0.50
2013-6-25,97.9,78.5,66.6,97.2,77.9,66.0,98,98,98,29.95,29.78,6,1,0,0.51
2013-6-26,98.2,81.4,66.4,95.2,80.7,65.8,98,98,84,29.82,29.71,8,1,0,1.60
2013-6-27,92.8,80.7,71.4,92.2,80.1,70.8,98,98,98,29.75,29.51,7,2,0,1.24
2013-6-28,92.3,77.6,69.6,91.6,76.9,69.0,98,98,98,29.53,29.42,7,2,0,0.12
2013-6-29,94.5,78.7,66.0,91.5,77.8,65.4,98,97,85,29.64,29.42,5,1,0,0.01
2013-6-30,88.2,76.0,70.5,87.5,75.4,69.9,98,98,98,29.83,29.63,4,1,0,0.69
2013-7-1,79.0,75.5,71.8,78.4,74.8,71.2,98,98,98,29.97,29.81,5,1,0,0.31
2013-7-2,87.6,77.4,71.6,87.0,76.8,71.0,98,98,98,30.14,29.97,9,1,0,0.33
2013-7-3,88.9,77.3,70.5,88.2,76.7,69.9,98,98,98,30.19,30.11,5,0,0,1.37
2013-7-4,94.6,82.4,73.2,94.0,81.8,72.6,98,98,98,30.20,30.11,9,2,0,0.00
2013-7-5,98.8,84.3,70.7,98.1,83.6,70.1,98,98,95,30.17,30.05,7,2,0,0.00
2013-7-6,100.8,87.2,73.8,99.0,86.3,73.2,98,97,88,30.11,29.98,8,2,0,0.00
2013-7-7,96.8,86.8,73.6,96.1,86.1,73.0,98,98,98,30.03,29.92,9,1,0,0.00
2013-7-8,95.2,80.2,70.3,94.2,79.5,69.7,98,98,97,30.02,29.94,7,1,0,0.53
2013-7-9,91.6,79.5,68.5,90.9,78.9,68.0,98,98,98,30.02,29.93,7,1,0,0.07
2013-7-10,94.5,82.3,73.0,93.8,81.6,72.4,98,98,98,29.96,29.75,7,2,0,0.04
2013-7-11,79.7,78.8,77.4,79.1,78.2,76.7,98,98,98,29.78,29.77,6,2,0,0.00
2013-7-12,77.7,73.2,69.3,77.1,72.6,68.7,98,98,98,29.98,29.89,9,3,0,1.24
2013-7-13,92.7,78.9,69.8,92.0,78.3,69.2,98,98,98,30.23,29.98,8,1,0,0.28
2013-7-14,96.1,83.5,74.1,95.4,82.8,73.5,98,98,98,30.29,30.19,6,1,0,0.00
2013-7-15,102.7,87.1,72.9,99.2,86.0,72.3,98,97,87,30.22,30.08,4,1,0,0.00
2013-7-16,81.0,77.8,75.9,80.3,77.2,75.3,98,98,98,30.11,30.09,0,0,0,0.00
2013-7-17,104.0,91.5,73.0,99.2,89.3,72.4,98,94,77,30.13,30.01,4,0,0,0.00
2013-7-18,103.8,87.7,74.7,99.9,86.9,74.1,98,98,95,30.03,29.90,5,0,0,0.00
2013-7-19,102.7,89.9,79.3,99.9,89.1,78.7,98,98,98,29.94,29.76,9,3,0,0.00
2013-7-20,97.9,86.4,72.3,97.2,85.8,71.7,98,98,98,29.80,29.68,13,2,0,0.20
2013-7-21,96.6,78.0,71.2,96.0,77.3,70.6,98,98,98,29.88,29.78,6,1,0,1.96
2013-7-22,93.7,78.7,71.1,93.1,78.1,70.5,98,98,98,29.88,29.71,6,1,0,1.87
2013-7-23,92.7,80.0,71.1,92.0,79.4,70.5,98,98,98,29.71,29.52,5,1,0,2.58
2013-7-24,87.1,77.9,68.5,86.4,77.3,68.0,98,98,98,29.86,29.57,6,1,0,0.00
2013-7-25,71.4,66.7,61.2,70.8,66.1,60.6,98,98,98,29.97,29.85,7,2,0,0.00
2013-7-26,90.3,73.7,60.3,87.9,72.7,59.7,98,97,81,29.99,29.93,4,1,0,0.00
2013-7-27,90.9,75.0,61.7,89.0,74.3,61.1,98,98,93,30.00,29.87,4,0,0,0.00
2013-7-28,85.8,72.6,66.6,85.2,72.0,66.0,98,98,98,29.92,29.81,7,1,0,3.25
2013-7-29,91.8,76.7,61.9,90.4,74.8,61.3,98,94,71,30.06,29.89,7,1,0,0.06
2013-7-30,90.5,74.0,57.7,84.8,72.0,57.2,98,94,77,30.13,30.05,5,1,0,0.00
2013-7-31,88.7,73.0,58.6,87.7,72.4,58.1,98,98,93,30.10,29.98,4,0,0,0.00
2013-8-1,73.0,69.3,65.7,72.4,68.7,65.1,98,98,98,29.98,29.76,6,1,0,1.25
2013-8-2,92.1,78.2,66.7,90.8,77.4,66.2,98,98,90,29.87,29.75,7,1,0,0.00
2013-8-3,82.8,72.9,64.8,82.1,72.3,64.2,98,98,98,29.87,29.81,6,1,0,0.00
2013-8-4,88.2,73.3,60.8,86.1,72.3,60.2,98,97,88,29.93,29.79,7,1,0,0.00
2013-8-5,85.5,69.3,53.8,78.9,66.6,53.2,98,92,69,30.02,29.93,5,1,0,0.00
2013-8-6,86.0,69.0,54.7,85.4,68.2,51.9,98,97,71,30.05,29.98,6,1,0,0.00
2013-8-7,80.4,71.9,65.7,79.8,70.9,33.0,99,97,25,30.06,29.98,7,1,0,0.24
2013-8-8,91.0,78.3,70.2,90.4,77.8,69.9,99,98,98,29.99,29.92,7,1,0,0.34
2013-8-9,89.1,79.4,74.3,88.4,78.7,73.7,98,98,98,29.95,29.75,9,2,0,0.91
2013-8-10,90.3,78.4,68.4,89.7,77.8,67.8,98,98,98,29.98,29.82,4,1,0,0.00
2013-8-11,93.0,75.6,60.6,92.0,75.0,60.1,98,98,97,30.06,29.94,7,1,0,0.00
2013-8-12,88.7,75.4,66.0,88.1,74.8,65.4,98,98,98,29.98,29.85,4,1,0,0.13
2013-8-13,88.9,75.0,69.1,88.2,74.4,68.5,98,98,98,29.86,29.64,4,0,0,1.70
2013-8-14,81.1,70.5,56.1,80.2,69.9,55.6,98,98,97,29.99,29.69,8,2,0,0.00
2013-8-15,55.2,54.2,52.5,54.7,53.6,52.0,98,98,98,30.03,30.00,0,0,0,0.00
2013-8-19,82.4,73.9,61.0,81.8,73.3,60.4,98,98,98,30.08,29.99,6,1,0,0.00
2013-8-20,93.6,77.4,62.1,92.9,76.8,61.5,98,98,98,30.08,30.00,6,0,0,0.00
2013-8-21,97.0,79.8,66.0,95.3,79.2,65.4,98,98,93,30.13,30.01,5,0,0,0.00
2013-8-22,88.9,74.9,69.3,88.2,74.3,68.7,98,98,98,30.02,29.83,7,1,0,1.32
2013-8-23,81.5,71.6,62.6,80.9,71.0,62.0,98,98,98,30.02,29.83,4,0,0,0.00
2013-8-24,85.3,69.8,57.7,83.4,69.0,57.2,98,97,88,30.30,30.03,8,1,0,0.00
2013-8-25,88.0,69.2,51.8,86.3,68.1,51.3,98,97,87,30.36,30.20,5,0,0,0.00
2013-8-26,90.1,74.6,61.2,89.5,74.0,60.6,98,98,98,30.21,29.88,9,2,0,0.00
2013-8-27,93.0,80.5,70.0,92.4,79.9,69.4,98,98,98,29.88,29.79,8,2,0,0.00
2013-8-28,78.8,72.4,67.1,78.2,71.9,66.5,98,98,98,29.84,29.76,4,0,0,0.56
2013-8-29,85.3,74.1,66.7,84.6,73.5,66.2,98,98,98,29.97,29.79,5,1,0,0.01
2013-8-30,85.8,75.0,66.2,85.2,74.4,65.6,98,98,98,29.97,29.80,7,1,0,0.00
2013-8-31,93.2,79.8,69.8,92.5,79.2,69.2,98,98,98,29.83,29.72,12,2,0,0.00
2013-9-1,92.8,79.3,70.3,92.2,78.7,69.7,98,98,98,29.79,29.69,6,0,0,0.00
2013-9-2,84.4,75.2,71.1,83.8,74.6,70.5,98,98,98,29.73,29.65,5,0,0,1.60
2013-9-3,88.2,76.5,65.5,87.5,75.8,64.9,98,98,98,29.84,29.65,5,1,0,0.00
2013-9-4,88.7,71.3,57.2,85.2,70.2,56.6,98,96,86,29.97,29.84,5,1,0,0.00
2013-9-5,85.3,69.4,53.6,84.6,68.8,53.0,98,98,95,30.06,29.91,7,1,0,0.00
2013-9-6,78.6,63.0,50.2,73.7,60.7,49.6,98,93,69,61.08,30.07,5,1,0,0.00
2013-9-7,84.6,64.7,45.1,77.7,62.3,44.6,98,93,72,30.08,29.86,4,0,0,0.00
2013-9-8,89.1,75.9,63.5,88.4,75.3,62.9,98,98,98,29.86,29.78,6,1,0,0.00
2013-9-9,79.2,71.3,48.7,78.5,70.7,48.2,98,98,98,30.16,29.85,5,1,0,0.00
2013-9-10,92.7,76.9,64.0,92.0,76.2,63.5,98,98,98,30.13,30.01,8,1,0,0.00
2013-9-11,98.2,82.6,71.6,97.6,81.9,71.0,98,98,98,30.07,29.94,6,1,0,0.00
2013-9-12,75.4,73.2,72.1,74.8,72.6,71.5,98,98,98,29.94,29.90,2,0,0,0.00
2013-9-13,81.3,70.3,60.4,80.7,69.8,59.9,98,98,98,29.81,29.61,8,2,0,0.01
2013-9-14,71.8,58.9,46.8,71.2,58.3,46.2,98,98,98,30.09,29.81,9,2,0,0.00
2013-9-15,79.2,59.6,42.4,75.6,58.8,41.9,98,97,89,30.18,30.03,5,1,0,0.00
2013-9-16,75.6,62.9,55.4,75.0,62.3,54.8,98,98,98,30.17,29.98,5,1,0,0.06
2013-9-17,69.4,56.4,43.0,67.6,54.8,42.5,98,95,77,30.37,30.17,12,2,0,0.00
2013-9-18,77.5,56.5,38.3,72.9,55.4,37.8,98,96,82,30.30,30.14,5,0,0,0.00
2013-9-19,82.6,61.2,43.3,78.5,60.3,42.8,98,97,81,30.15,30.02,5,0,0,0.00
2013-9-20,84.6,64.7,48.2,83.9,64.2,47.7,98,98,98,30.04,29.92,4,0,0,0.00
2013-9-21,83.5,66.3,49.5,82.1,65.7,48.9,98,98,92,29.95,29.61,8,2,0,1.37
2013-9-22,75.9,64.9,53.4,75.3,64.1,52.9,98,97,89,29.86,29.60,12,2,0,1.02
2013-9-23,71.8,59.0,44.2,69.0,57.9,43.7,98,96,88,29.98,29.86,6,2,0,0.00
2013-9-24,76.5,60.9,41.4,73.1,59.9,40.8,98,97,87,30.02,29.85,5,2,0,0.00
2013-9-25,80.6,58.8,42.4,74.0,57.1,41.9,98,95,67,29.91,29.82,3,0,0,0.00
2013-9-26,76.3,58.9,47.3,75.7,58.4,46.8,98,98,98,30.03,29.87,3,0,0,0.00
2013-9-27,75.6,62.6,53.4,75.0,62.0,52.9,98,98,98,30.20,30.03,4,0,0,0.00
2013-9-28,76.8,65.3,52.0,76.2,64.0,51.4,98,96,93,30.26,30.18,4,1,0,0.39
2013-9-29,74.1,74.1,74.1,72.0,72.0,72.0,93,93,93,30.20,30.20,1,1,0,0.00
2013-9-30,74.1,71.5,53.2,72.0,69.7,52.7,98,94,93,30.20,29.95,1,1,0,0.05
2013-10-1,84.7,65.4,50.0,84.1,64.9,49.5,98,98,97,29.97,29.86,4,0,0,0.00
2013-10-2,87.3,70.7,55.6,86.3,70.0,55.0,98,97,90,29.97,29.88,7,1,0,0.00
2013-10-3,84.4,69.4,56.5,83.8,68.6,53.7,98,97,77,30.06,29.96,2,0,0,0.00
2013-10-4,90.9,72.9,57.9,89.2,71.6,45.1,98,96,62,30.01,29.91,5,1,0,0.00
2013-10-5,68.4,66.5,63.7,67.8,65.9,63.1,98,98,98,30.00,29.95,0,0,0,0.00
2013-10-7,85.5,68.1,57.6,84.8,67.5,57.0,98,98,98,29.94,29.70,10,2,0,0.78
2013-10-8,72.5,57.0,47.7,69.3,56.1,47.1,98,97,88,30.24,29.95,6,1,0,0.00
2013-10-9,64.2,57.6,50.0,63.6,57.1,49.5,98,98,98,30.29,30.18,11,3,0,0.00
2013-10-10,58.5,58.1,57.6,57.9,57.5,57.0,98,98,98,30.18,30.13,6,3,0,0.00
2013-10-11,63.3,62.1,57.4,62.7,61.5,56.8,98,98,98,29.98,29.90,11,3,0,1.67
2013-10-12,73.2,65.1,60.8,72.6,64.5,60.2,98,98,98,30.15,29.96,13,4,0,0.00
2013-10-13,72.3,61.4,50.4,71.7,60.8,49.8,98,98,95,30.30,30.15,10,3,0,0.00
2013-10-14,79.0,58.2,45.7,74.4,57.2,44.5,98,97,82,30.30,30.17,5,0,0,0.00
2013-10-15,80.4,58.2,43.3,73.7,49.1,21.4,98,75,39,30.20,30.05,6,1,0,0.00
2013-10-16,76.8,63.1,51.8,76.2,62.6,51.3,98,98,98,30.05,29.85,4,0,0,0.00
2013-10-17,81.7,68.9,61.0,81.1,68.3,60.4,98,98,98,29.85,29.64,5,1,0,0.00
2013-10-18,73.6,60.6,44.1,67.1,57.9,43.5,98,92,69,29.95,29.64,8,2,0,0.00
2013-10-19,68.4,53.4,40.3,67.8,51.4,27.0,98,93,53,29.95,29.72,6,0,0,0.05
2013-10-20,69.4,54.5,40.8,58.6,49.2,40.3,98,85,44,30.03,29.73,10,2,0,0.00
2013-10-21,77.0,53.6,36.0,76.7,52.4,27.0,99,96,37,30.11,29.93,7,1,0,0.00
2013-10-22,77.5,55.6,41.4,77.2,52.5,-31.1,99,94,3,29.92,29.72,8,1,0,0.00
2013-10-23,57.6,47.7,39.6,57.3,45.5,-17.7,99,95,5,29.77,29.55,8,1,0,0.01
2013-10-24,60.6,46.2,36.3,60.3,45.4,4.7,99,98,23,30.01,29.74,11,2,0,0.00
2013-10-25,60.1,45.0,32.5,59.8,44.0,27.7,99,97,54,30.21,30.01,6,1,0,0.00
2013-10-26,61.2,45.5,30.2,60.9,45.0,23.0,99,98,37,30.21,29.87,17,2,0,0.00
2013-10-27,64.9,50.7,36.7,64.7,48.8,-30.4,99,97,3,30.09,29.84,7,1,0,0.00
2013-10-28,70.9,47.5,30.0,70.6,47.2,29.8,99,99,94,30.25,30.09,6,0,0,0.00
2013-10-29,67.3,49.6,37.8,67.0,48.0,-21.5,99,97,4,30.34,30.25,5,1,0,0.00
2013-10-30,59.9,49.3,39.9,59.3,48.8,39.7,99,98,89,30.30,30.13,0,0,0,0.15
2013-10-31,71.8,61.0,50.4,71.2,60.4,49.8,98,98,98,30.17,29.75,8,1,0,0.02
2013-11-1,72.0,65.1,54.9,71.4,64.6,54.3,98,98,98,29.74,29.52,14,4,0,0.21
2013-11-2,77.9,60.2,51.1,72.2,56.6,50.5,98,90,48,29.74,29.56,5,1,0,0.00
2013-11-3,58.3,47.3,33.4,52.7,42.2,29.6,98,84,42,30.41,29.74,10,3,0,0.00
2013-11-4,54.3,39.0,29.1,38.1,28.4,13.3,98,74,21,30.60,30.41,6,1,0,0.00
2013-11-5,66.4,47.9,33.3,59.2,45.7,32.8,98,93,66,30.59,30.43,6,1,0,0.00
2013-11-6,74.3,53.4,35.2,68.4,51.7,31.6,98,94,80,30.44,30.01,7,1,0,0.00
2013-11-7,63.7,55.2,39.7,63.1,54.7,39.2,99,98,86,30.00,29.73,10,2,0,0.12
2013-11-8,55.4,45.3,36.7,55.1,43.2,-22.4,99,96,5,30.21,29.92,9,3,0,0.00
2013-11-9,57.6,42.8,28.2,57.3,40.0,-42.1,99,95,2,30.27,29.95,5,1,0,0.00
2013-11-10,66.7,50.6,40.6,66.4,50.1,28.3,99,98,55,30.06,29.81,12,4,0,0.00
2013-11-11,63.5,49.8,36.0,63.2,49.1,-4.0,99,98,17,30.20,29.94,12,3,0,0.00
2013-11-12,50.2,38.9,27.7,49.9,38.1,3.3,99,98,24,30.29,29.89,11,3,0,0.24
2013-11-13,44.1,33.5,25.2,43.8,32.8,-4.6,99,98,25,30.36,30.28,10,2,0,0.00
2013-11-14,50.5,37.6,27.0,50.3,36.7,6.1,99,97,37,30.27,30.16,8,1,0,0.00
2013-11-15,68.0,43.1,27.1,67.7,42.2,-8.7,99,97,17,30.21,30.12,5,0,0,0.00
2013-11-16,60.1,48.3,37.4,59.8,46.7,-7.6,99,97,7,30.29,30.19,4,1,0,0.05
2013-11-17,72.9,59.1,49.6,72.3,58.3,48.8,99,98,49,30.20,29.72,6,1,0,0.00
2013-11-18,73.2,62.3,50.5,72.9,60.8,-11.6,99,97,5,29.77,29.57,10,4,0,0.33
2013-11-19,50.0,46.3,42.8,49.7,46.1,42.5,99,99,99,29.94,29.78,9,5,0,0.00
2013-11-20,50.7,36.9,24.1,50.4,35.3,-3.2,99,96,25,30.55,30.43,7,1,0,0.00
2013-11-21,82.6,43.6,27.3,66.8,38.5,-49.9,99,91,2,30.55,30.34,6,1,0,0.00
2013-11-22,61.3,51.9,45.7,60.8,50.8,-16.7,99,98,4,30.34,29.89,11,1,0,0.06
2013-11-23,52.3,43.3,28.8,52.1,42.8,28.3,99,98,49,30.04,29.89,11,4,0,0.01
2013-11-24,32.4,27.0,22.8,32.1,26.7,22.6,99,99,99,30.40,30.03,17,5,0,0.00
2013-11-25,42.6,29.6,19.2,42.4,29.4,19.0,99,99,99,30.49,30.31,8,2,0,0.00
2013-11-26,55.9,38.1,32.2,55.4,34.0,-44.1,99,92,2,30.31,29.61,9,1,0,0.85
2013-11-27,65.3,45.9,31.8,64.7,45.3,31.3,98,98,98,29.78,29.32,19,5,0,2.05
2013-11-28,41.7,32.4,25.5,32.2,17.3,8.2,98,57,25,30.44,29.81,11,4,0,0.00
2013-11-29,46.0,32.6,21.6,29.9,18.0,9.2,98,61,24,30.69,30.43,8,1,0,0.00
2013-11-30,43.0,32.9,22.3,28.5,21.7,11.9,78,63,54,30.69,30.33,7,1,0,0.00
2013-12-1,58.8,42.7,27.1,35.2,29.6,25.8,98,63,28,30.32,29.98,3,0,0,0.00
2013-12-2,56.7,41.2,31.3,36.5,31.9,25.3,93,73,31,29.97,29.82,2,0,0,0.00
2013-12-3,61.0,44.0,33.1,44.0,36.6,29.9,96,78,32,29.95,29.82,5,0,0,0.00
2013-12-4,57.6,45.3,33.3,49.6,40.3,29.2,98,84,63,30.05,29.96,5,0,0,0.00
2013-12-5,62.2,56.1,49.5,61.7,51.7,1.4,99,89,13,30.05,29.87,5,1,0,0.00
2013-12-6,63.5,62.3,59.9,62.9,43.8,26.5,99,54,26,29.87,29.81,7,3,0,0.29
2013-12-7,62.4,51.8,26.8,39.6,35.6,24.0,98,58,43,30.47,29.85,5,2,0,0.00
2013-12-8,31.3,28.6,25.2,29.0,22.4,5.6,98,79,34,30.55,30.27,9,1,0,0.00
2013-12-9,38.8,35.7,31.6,38.3,31.2,-3.9,99,88,19,30.27,29.94,7,1,0,2.03
2013-12-10,35.6,31.5,23.5,35.1,30.0,13.9,99,95,43,30.12,29.85,5,1,0,0.05
2013-12-11,39.4,27.6,16.2,30.9,18.9,10.8,98,73,36,30.33,30.13,11,1,0,0.08
2013-12-12,32.5,23.6,16.7,22.7,11.3,-0.5,98,63,27,30.34,30.16,11,2,0,0.00
2013-12-13,42.4,29.3,15.8,10.5,7.4,-24.5,70,44,5,30.18,30.12,11,4,0,0.01
2013-12-14,34.5,32.5,30.9,34.3,26.3,-1.7,99,79,22,30.37,29.63,8,3,0,0.40
2013-12-15,44.2,36.4,30.2,40.3,31.3,10.9,99,82,38,29.83,29.48,11,3,0,0.45
2013-12-16,34.7,28.1,20.1,34.4,8.6,-21.6,99,47,8,30.20,29.83,9,2,0,0.00
2013-12-17,35.8,28.7,24.3,35.3,24.8,12.6,98,86,55,30.17,29.88,6,1,0,0.07
2013-12-18,42.3,30.5,19.4,28.7,20.3,13.8,96,69,34,30.15,29.89,8,2,0,0.00
2013-12-19,53.1,37.6,24.4,33.3,26.7,20.1,97,68,35,30.17,30.00,7,1,0,0.00
2013-12-20,58.6,47.6,34.0,54.3,36.2,30.4,98,68,35,30.05,29.94,7,2,0,0.00
2013-12-21,72.1,59.9,51.1,63.3,56.3,50.5,98,89,62,29.96,29.84,12,3,0,0.00
2013-12-22,72.3,65.5,61.7,71.4,64.8,61.1,98,98,88,29.93,29.76,14,4,0,0.07
2013-12-23,63.7,56.5,43.0,63.4,52.5,20.1,99,90,20,30.11,29.84,7,2,0,0.96
2013-12-24,43.5,36.2,26.8,37.8,22.2,9.8,83,58,39,30.34,30.07,10,4,0,0.00
2013-12-25,38.7,26.5,19.9,38.4,7.9,-21.8,99,48,7,30.51,30.34,7,2,0,0.00
2013-12-26,47.3,29.7,19.6,28.3,22.6,15.8,97,76,45,30.37,30.13,7,1,0,0.00
2013-12-27,49.6,32.1,20.1,49.4,19.0,8.5,99,64,20,30.35,30.23,14,1,0,0.00
2013-12-28,61.7,41.3,24.3,61.4,25.3,-28.8,99,62,2,30.26,30.05,14,2,0,0.00
2013-12-29,49.1,43.3,40.3,48.8,37.1,10.7,99,81,27,30.04,29.36,8,2,0,1.71
2013-12-30,48.4,38.6,27.1,44.0,28.9,11.7,98,70,32,30.13,29.68,11,2,0,0.00
2013-12-31,43.5,30.4,21.4,28.0,15.0,8.1,70,53,37,30.28,30.02,13,2,0,0.00
2014-1-1,46.2,32.3,20.7,24.2,16.0,7.8,74,52,29,30.37,30.16,6,1,0,0.00
2014-1-2,34.9,30.0,21.0,30.8,26.5,18.3,93,87,69,30.14,29.57,12,3,0,0.00